STARLINK-33693, 63409

Orbit data source: Space-Track

STARLINK-33693, 63409 is a payload satellite owned by SpaceX/Seattle (US) in LEO that was launched on Mon, 31 Mar 2025 UTC via an FALCON 9 launch vehicle from the Air Force Eastern Test Range (AFETR). Payload-class satellites include a variety of spacecraft equipped with specific instruments for various scientific and technological missions. These include communications satellites like Starlink; space stations such as the ISS; scientific satellites like the Hubble; Earth observation satellites from companies like Planet Labs, Umbra, and HawkEye 360; GPS; miniature CubeSats for education and research; and military/defense satellites.

Loading next visibility...
Identifier
63409, 2025-065L
Orbit
LEO
Country
Flag of USUS
Related business
Manufacturer
SpaceX/Seattle
Mission
Operational Commercial Communications
Bus & Motor
STARLINK V2MO, Unknown motor
Mass
575 kg wet, ~530 kg dry
Launch date (UTC)
2025-03-31 (1 year ago)
Launch vehicle
FALCON 9
Launch site
Air Force Eastern Test Range (AFETR)
Object type
Payload
Rocket body
Debris
Shape & HBR
Box + 2 Pan, 17.7 m
Radar Cross Section
36.964 m², Large (>1 m²)

Expand to show TLE details & history
Last TLE update: 18 hours ago

TLE from 18 hours ago
0 STARLINK-33693
1 63409U 25065L   26171.24270297  .00017773  00000-0  65344-3 0  9990
2 63409  42.9995 247.9478 0001821 281.7093  78.3554 15.27598369 68523
Epoch: 2026-06-20T05:49Z
TLE epoch observation values (Epoch: 2026-06-20T05:49:29.536Z)
Latitude
-0.00004°
Longitude
-107.88544°
Altitude
482.518 km
Speed
7.626 km/s
True Right ascension
16h 31m 47s
True Declination
0° 00' 00"
Sunlit
Object was in full shadow at epoch
Visualization orbit readout
Latitude
Unknown
Longitude
Unknown
Altitude
Unknown
Speed
Unknown
Apparent Right ascension
Unknown
Apparent Declination
Unknown
Sunlit
N/A
Visualization observer readout
Local Sidereal Time
10:18:03
Azimuth
Unknown
Elevation
Unknown
Doppler factor
Unknown
Orbital elements
Apogee altitude
486.189 km
Perigee altitude
483.69 km
Semi-major axis
6,863.076 km
Eccentricity
0.00018
Inclination
42.9995°
RAAN
247.9478°
Arg. of periapsis
281.7093°
True anomaly
78.37584°
Mean anomaly
78.3554°
Eccentric anomaly
78.36562°
Mean motion
3.81738 °/min
Orbital period
94.31 mins
BSTAR
0.00065344
Loading maneuver chart data...
Computing Atmospheric mass density...
Loading historical data...
Loading historical data...
Loading historical data...
Loading historical data...
Loading historical data...
Loading historical data...
Loading historical data...

Documentation

Showing up to 5 results
|